Tracking 19575 objects as of 19-Feb-2019
HD Live streaming from Space Station
objects crossing your sky now

COSMOS 1823 DEB

Track COSMOS 1823 DEB now!
10-day predictions


NORAD ID: 18725
Int'l Code: 1987-020C
Perigee: 1,464.7 km
Apogee: 1,577.7 km
Inclination: 73.8 °
Period: 116.3 minutes
Semi major axis: 7892 km
RCS: 0.1513 m2 (medium)
Launch date: February 20, 1987
Source: Commonwealth of Independent States (former USSR) (CIS)
Launch site: PLESETSK MISSILE AND SPACE COMPLEX (PKMTR)

Note: This is SATELLITE DEBRIS
aabbcc
Your satellite tracking list
Your tracking list is empty




NASA's NSSDC Master Catalog

Two Line Element Set (TLE):
1 18725U 87020C   19049.81652660 -.00000067 +00000-0 -38497-3 0  9996
2 18725 073.7640 288.9010 0071576 051.3557 027.0271 12.38235741408199
Source of the keplerian elements: AFSPC